Location: Poughquag
(41.6090°N, 73.6820°W)
Time: 02:34:47
(UTC-04:00)

Transit 2A Rocket - Pass Details

Date: 06 June 2020
Orbit: 584 x 919 km, 66.7° (Epoch: 06 July)

Event Time Altitude Azimuth Distance (km) Brightness Sun altitude
Rises 07:41:08 0° 319° (NW) 3,545 8.2 23.5°
Reaches altitude 10° 07:43:58 10° 309° (NW) 2,613 7.5 24.0°
Maximum altitude 07:49:04 28° 252° (WSW) 1,642 6.4 25.0°
Drops below altitude 10° 07:54:06 10° 196° (SSW) 2,570 7.6 25.9°
Sets 07:56:53 0° 185° (S) 3,476 8.3 26.4°
